User: anonymous   Login
Location: Bonneuil
(46.1010°N, 2.9693°E)
Time: 02:09:07
(UTC+00:00)
Language:

ISS - Orbit

View from above orbital plane
View from above orbital plane
View from above satellite
View from above satellite

Ground track
Ground track

The orbit data is extracted from the following two-line orbital elements,

1 25544U 98067A   21100.68425987  .00001033  00000-0  27007-4 0  9990
2 25544  51.6450 316.6023 0002900 208.4043 258.7769 15.48879316278133
Epoch (UTC): 10 April 2021 16:25:20
Eccentricity: 0.0002900
inclination: 51.6450°
perigee height: 418 km
apogee height: 422 km
right ascension of ascending node: 316.6023°
argument of perigee: 208.4043°
revolutions per day: 15.48879316
mean anomaly at epoch: 258.7769°
orbit number at epoch: 27813

The dashed part of the orbit path shows where the satellite is in the earth's shadow,  

DLR